Location: Kelshall
(52.0000°N, 0.0500°W)
Time: 20:22:25
(UTC+00:00)

N. Korean satellite - Visible Passes

Search period start: 29 November 2020 00:00
Search period end: 09 December 2020 00:00
Orbit: 452 x 504 km, 97.2° (Epoch: 29 November)

Date Brightness Start Highest point End Pass type
(mag) Time Alt. Az. Time Alt. Az. Time Alt. Az.
29 Nov 8.6 05:00:19 10° NNE 05:03:29 29° E 05:06:41 10° SSE visible
29 Nov 7.5 06:33:42 10° N 06:36:47 27° WNW 06:39:53 10° SW visible
29 Nov 8.8 17:14:08 10° SSW 17:17:08 28° W 17:20:11 10° NW visible
30 Nov 9.6 04:34:42 10° NE 04:36:59 16° E 04:39:18 10° SE visible
30 Nov 6.7 06:07:05 10° N 06:10:36 50° WNW 06:14:08 10° SSW visible
30 Nov 7.2 16:47:21 10° S 16:50:42 56° W 16:54:09 10° NNW visible
01 Dec 6.6 05:40:42 10° NNE 05:44:19 82° ESE 05:47:58 10° SSW visible
01 Dec 10.1 17:57:17 10° WSW 17:58:12 11° W 17:59:07 10° WNW visible
02 Dec 7.9 05:14:30 10° NNE 05:17:57 41° E 05:21:25 10° S visible
02 Dec 7.9 06:48:21 10° NNW 06:51:04 20° WNW 06:53:48 10° WSW visible
02 Dec 9.4 17:28:59 10° SW 17:31:36 20° W 17:34:15 10° NW visible
03 Dec 9.1 04:48:35 10° NE 04:51:29 22° E 04:54:24 10° SE visible
03 Dec 7.1 06:21:34 10° N 06:24:54 35° WNW 06:28:16 10° SW visible
03 Dec 8.1 17:01:52 10° SSW 17:05:06 38° W 17:08:23 10° NNW visible
04 Dec 10.0 04:23:19 10° ENE 04:24:54 12° E 04:26:29 10° ESE visible
04 Dec 6.5 05:55:02 10° N 05:58:39 69° WNW 06:02:18 10° SSW visible
04 Dec 6.6 16:35:14 10° S 16:38:40 79° WSW 16:42:11 10° NNW visible
05 Dec 7.1 05:28:41 10° NNE 05:32:19 60° ESE 05:35:56 10° S visible
05 Dec 8.2 07:03:02 10° NNW 07:05:15 15° WNW 07:07:28 10° W visible
05 Dec 9.8 17:44:01 10° SW 17:46:01 15° W 17:48:02 10° NW visible
06 Dec 8.5 05:02:34 10° NNE 05:05:52 31° E 05:09:10 10° SSE visible
06 Dec 7.6 06:36:02 10° N 06:39:07 26° WNW 06:42:13 10° WSW visible
06 Dec 8.9 17:16:26 10° SSW 17:19:25 27° W 17:22:27 10° NW visible
07 Dec 9.5 04:36:48 10° NE 04:39:18 17° E 04:41:48 10° SE visible
07 Dec 6.8 06:09:21 10° N 06:12:53 47° WNW 06:16:26 10° SW visible
07 Dec 7.4 16:49:32 10° S 16:52:55 53° W 16:56:24 10° NNW visible
08 Dec 6.5 05:42:52 10° NNE 05:46:33 87° ESE 05:50:15 10° SSW visible
08 Dec 6.4 16:23:03 10° SSE 16:26:31 75° ENE 16:30:04 10° N visible
08 Dec 10.2 17:59:43 10° W 18:00:22 10° W 18:01:02 10° WNW visible
